• Join FlightAware (Why Join?)
  • Login
  • US Flag 
05:52PM EDT


 

Airport Tracker/Info


-or-


 

Live Flight TrackerFlight Track Log ✈ ASQ5685 ✈ 08-Dec-2013 ✈ KATL - KIAD

Flight Track Log - Related Links

Times and Time Zones

All times are in EST time to prevent confusion due to time zone crossing. See the ASQ5685 flight status page for this flight to view local times or setup timezone preferences in your user account.

Time Position Orientation Groundspeed Altitude Reporting Facility
EST Latitude Longitude Course Direction KTS MPH feet Rate Location/Type
09:35AM 33.6333 -84.3667 71° East 192 221 3,000  Level Atlanta TRACON
09:36AM 33.6333 -84.2833 90° East 285 328 4,500 1,920 Climbing Atlanta TRACON
09:37AM 33.9064 -84.1072 54° Northeast  Level Estimated
09:37AM 33.6333 -84.1833 90° East 296 341 6,900  Level Atlanta TRACON
09:38AM 33.9961 -83.9998 53° Northeast  Level Estimated
09:38AM 33.6753 -84.0439 70° East 343 395 10,000  Level Atlanta Center
09:39AM 34.0379 -83.8559 71° East  Level FlightAware Approximate
09:39AM 33.7419 -83.9589 47° Northeast 343 395 11,300  Level Atlanta Center
09:40AM 34.0796 -83.7119 71° East  Level FlightAware Approximate
09:40AM 33.8150 -83.8664 46° Northeast 356 410 12,500  Level Atlanta Center
09:41AM 33.8900 -83.7661 48° Northeast 382 440 13,600 1,140 Climbing Atlanta Center
09:42AM 33.9647 -83.6606 50° Northeast 404 465 14,800 1,200 Climbing Atlanta Center
09:43AM 34.0353 -83.5475 53° Northeast 426 490 16,000 1,200 Climbing Atlanta Center
09:44AM 34.1078 -83.4317 53° Northeast 432 497 17,300 1,080 Climbing Atlanta Center
09:45AM 34.1825 -83.3156 52° Northeast 432 497 18,200 900 Climbing Atlanta Center
09:46AM 34.2631 -83.1867 53° Northeast 437 503 19,200 840 Climbing Atlanta Center
09:47AM 34.3392 -83.0628 53° Northeast 443 510 19,900 720 Climbing Atlanta Center
09:48AM 34.4175 -82.9408 52° Northeast 449 517 20,700 720 Climbing Atlanta Center
09:49AM 34.4936 -82.8114 54° Northeast 462 532 21,400 660 Climbing Atlanta Center
09:50AM 34.5736 -82.6842 53° Northeast 468 539 22,100 660 Climbing Atlanta Center
09:51AM 34.6536 -82.5567 53° Northeast 474 545 22,800 660 Climbing Atlanta Center
09:52AM 34.7333 -82.4236 54° Northeast 474 545 23,500 660 Climbing Atlanta Center
09:53AM 34.8150 -82.2931 53° Northeast 474 545 24,200 660 Climbing Atlanta Center
09:54AM 34.8942 -82.1572 55° Northeast 480 552 24,900 540 Climbing Atlanta Center
09:55AM 34.9675 -82.0414 52° Northeast 485 558 25,300 420 Climbing Atlanta Center
09:56AM 35.0486 -81.9025 54° Northeast 485 558 25,800 480 Climbing Atlanta Center
09:57AM 35.1233 -81.7583 58° Northeast 496 571 26,300 480 Climbing Atlanta Center
09:58AM 35.1978 -81.6167 57° Northeast 501 577 26,800 480 Climbing Atlanta Center
09:59AM 35.2722 -81.4744 57° Northeast 501 577 27,300 480 Climbing Atlanta Center
10:00AM 35.3483 -81.3294 57° Northeast 501 577 27,800 480 Climbing Atlanta Center
10:01AM 35.4222 -81.1844 58° Northeast 501 577 28,300 540 Climbing Atlanta Center
10:02AM 35.5081 -81.0206 57° Northeast 511 588 28,900 300 Climbing Atlanta Center
10:03AM 35.5856 -80.8747 57° Northeast 511 588 29,000  Climbing Atlanta Center
10:04AM 35.6611 -80.7261 58° Northeast 511 588 29,000  Level Atlanta Center
10:05AM 35.7403 -80.5772 57° Northeast 511 588 29,000  Level Atlanta Center
10:06AM 35.8214 -80.4200 58° Northeast 518 596 29,000  Level Atlanta Center
10:08AM 35.9792 -80.1044 58° Northeast 533 613 29,000  Level Washington Center
10:09AM 36.0686 -79.9400 56° Northeast 528 608 29,000  Level Washington Center
10:10AM 36.1556 -79.7878 55° Northeast 533 613 29,000  Level Washington Center
10:11AM 36.2447 -79.6225 56° Northeast 533 613 29,000  Level Washington Center
10:12AM 36.3311 -79.4697 55° Northeast 538 619 29,000 -240 Level Washington Center
10:13AM 36.4194 -79.3142 55° Northeast 543 625 28,600 -780 Descending Washington Center
10:14AM 36.5078 -79.1556 55° Northeast 543 625 27,500 -1,140 Descending Washington Center
10:15AM 36.5956 -79.0044 54° Northeast 543 625 26,400 -1,140 Descending Washington Center
10:16AM 36.7011 -78.8897 41° Northeast 543 625 25,300 -720 Descending Washington Center
10:17AM 36.8189 -78.7806 37° Northeast 531 611 25,000 -180 Descending Washington Center
10:18AM 36.9367 -78.6658 38° Northeast 531 611 25,000  Level Washington Center
10:19AM 37.0650 -78.5408 38° Northeast 531 611 25,000 -60 Level Washington Center
10:20AM 37.1822 -78.4281 37° Northeast 531 611 24,900  Descending Washington Center
10:21AM 37.2997 -78.3175 37° Northeast 525 604 25,000  Climbing Washington Center
10:22AM 37.4128 -78.2067 38° Northeast 520 598 25,000  Level Washington Center
10:23AM 37.5278 -78.0953 38° Northeast 520 598 25,000 -1,140 Level Washington Center
10:24AM 37.6447 -77.9836 37° Northeast 520 598 22,800 -2,820 Descending Washington Center
10:25AM 37.7511 -77.8742 39° Northeast 520 598 19,400 -3,000 Descending Washington Center
10:26AM 37.8572 -77.7722 37° Northeast 500 575 16,700 -2,880 Descending Washington Center
10:27AM 37.9550 -77.6750 38° Northeast 472 543 13,700 -2,460 Descending Washington Center
10:28AM 38.0442 -77.5850 38° Northeast 430 495 12,000 -1,800 Descending Washington Center
10:29AM 38.1308 -77.5031 37° Northeast 400 460 10,200 -1,020 Descending Washington Center
10:30AM 38.2172 -77.4522 25° Northeast 340 391 10,000 -300 Descending Washington Center
10:31AM 38.3069 -77.4572 357° North 317 365 9,700 -900 Descending Washington Center
10:32AM 38.3922 -77.4592 359° North 317 365 8,300 -1,380 Descending Washington Center
10:33AM 38.4756 -77.4614 359° North 306 352 7,000 -1,380 Descending Washington Center
10:34AM 38.5547 -77.4633 359° North 290 334 5,700 -1,380 Descending Washington Center
10:35AM 38.6278 -77.4653 359° North 274 315 4,400 -900 Descending Washington Center
10:36AM 38.7006 -77.4697 357° North 262 302 4,000 -240 Descending Washington Center
10:38AM 38.7667 -77.4667 North 222 255 3,900 -600 Descending Potomac TRACON
10:38AM 38.8333 -77.4667 360° North 190 219 2,800 -1,140 Descending Potomac TRACON
10:39AM 38.8667 -77.4667 360° North 159 183 1,800 -960 Descending Potomac TRACON
10:40AM 38.9167 -77.4667 360° North 142 163 1,000 -900 Descending Potomac TRACON